EZY12NL EGPF-EGHI

Flight info

Callsign EZY12NL
Flight time 1h 6m
Altitude 25000
Route NORBO T256 DCS/N0422F330 DCT ADZOP DCT EGTOC DCT KEPAD L151 PEPUL/N0360F230 Y322 BUGUP
Aircraft A320/M-SDE3FGHIRWY/LB1

Departure

Time 2026-05-06 08:05
Airport Glasgow Airport (EGPF)

Arrival

Time 2026-05-06 09:11
Airport Southampton Airport (EGHI)
Time Latitude Longitude Altitude Speed Heading
2026-05-06 07:34 55.86624 -4.43694 14 ft 0 kts 241°
2026-05-06 07:57 55.86624 -4.43693 14 ft 0 kts 241°
2026-05-06 07:57 55.86632 -4.43671 14 ft 2 kts 241°
2026-05-06 07:57 55.86639 -4.43647 15 ft 2 kts 245°
2026-05-06 07:58 55.86642 -4.43622 15 ft 2 kts 273°
2026-05-06 07:58 55.86639 -4.43596 15 ft 2 kts 297°
2026-05-06 07:58 55.86630 -4.43574 15 ft 2 kts 320°
2026-05-06 07:58 55.86619 -4.43561 15 ft 0 kts 341°
2026-05-06 07:59 55.86612 -4.43558 16 ft 0 kts 345°
2026-05-06 08:01 55.86620 -4.43562 15 ft 2 kts 345°
2026-05-06 08:01 55.86645 -4.43574 15 ft 5 kts 345°
2026-05-06 08:01 55.86689 -4.43596 14 ft 7 kts 344°
2026-05-06 08:01 55.86737 -4.43651 14 ft 9 kts 291°
2026-05-06 08:02 55.86723 -4.43770 14 ft 10 kts 235°
2026-05-06 08:02 55.86668 -4.43873 14 ft 12 kts 227°
2026-05-06 08:02 55.86608 -4.43985 14 ft 13 kts 226°
2026-05-06 08:02 55.86543 -4.44109 14 ft 14 kts 227°
2026-05-06 08:03 55.86468 -4.44249 14 ft 14 kts 226°
2026-05-06 08:03 55.86387 -4.44397 14 ft 15 kts 226°
2026-05-06 08:03 55.86311 -4.44544 14 ft 16 kts 227°
2026-05-06 08:03 55.86255 -4.44655 14 ft 9 kts 246°
2026-05-06 08:04 55.86282 -4.44761 14 ft 10 kts 317°
2026-05-06 08:04 55.86337 -4.44853 14 ft 6 kts 317°
2026-05-06 08:04 55.86377 -4.44850 14 ft 7 kts 38°
2026-05-06 08:04 55.86417 -4.44778 14 ft 10 kts 47°
2026-05-06 08:05 55.86588 -4.44455 13 ft 72 kts 47°
2026-05-06 08:05 55.87107 -4.43482 11 ft 138 kts 46°
2026-05-06 08:05 55.87839 -4.42112 383 ft 158 kts 49°
2026-05-06 08:05 55.88588 -4.40667 1051 ft 162 kts 48°
2026-05-06 08:06 55.89356 -4.39223 1800 ft 163 kts 49°
2026-05-06 08:06 55.90161 -4.37717 2331 ft 176 kts 49°
2026-05-06 08:06 55.91064 -4.36029 2815 ft 193 kts 48°
2026-05-06 08:06 55.92117 -4.34067 3255 ft 216 kts 48°
2026-05-06 08:07 55.93350 -4.32256 3747 ft 238 kts 26°
2026-05-06 08:07 55.95129 -4.31762 4267 ft 260 kts 350°
2026-05-06 08:07 55.96733 -4.33193 4964 ft 268 kts 315°
2026-05-06 08:07 55.97683 -4.36036 5614 ft 269 kts 286°
2026-05-06 08:08 55.97829 -4.39292 5923 ft 268 kts 263°
2026-05-06 08:08 55.97361 -4.42675 5998 ft 266 kts 251°
2026-05-06 08:08 55.96589 -4.46096 6034 ft 266 kts 246°
2026-05-06 08:08 55.95755 -4.49191 6045 ft 266 kts 240°
2026-05-06 08:09 55.94678 -4.51870 6051 ft 266 kts 229°
2026-05-06 08:09 55.93407 -4.54255 6055 ft 265 kts 226°
2026-05-06 08:09 55.92090 -4.56597 6055 ft 265 kts 225°
2026-05-06 08:09 55.90776 -4.58928 6054 ft 265 kts 225°
2026-05-06 08:10 55.89439 -4.61316 6054 ft 265 kts 226°
2026-05-06 08:10 55.88135 -4.63656 6054 ft 265 kts 226°
2026-05-06 08:10 55.86850 -4.65966 6054 ft 266 kts 225°
2026-05-06 08:10 55.85458 -4.68226 6050 ft 266 kts 218°
2026-05-06 08:11 55.83962 -4.70103 6053 ft 266 kts 212°
2026-05-06 08:11 55.82397 -4.71851 6053 ft 266 kts 212°
2026-05-06 08:11 55.80826 -4.73577 6053 ft 265 kts 211°
2026-05-06 08:11 55.79222 -4.75124 6043 ft 265 kts 198°
2026-05-06 08:12 55.77383 -4.75600 6053 ft 266 kts 182°
2026-05-06 08:12 55.75535 -4.75593 6049 ft 265 kts 179°
2026-05-06 08:12 55.73700 -4.75554 6049 ft 266 kts 180°
2026-05-06 08:12 55.71868 -4.75561 6050 ft 266 kts 181°
2026-05-06 08:13 55.70007 -4.75614 6053 ft 266 kts 181°
2026-05-06 08:13 55.68153 -4.75695 6052 ft 266 kts 182°
2026-05-06 08:13 55.66306 -4.75790 6054 ft 266 kts 182°
2026-05-06 08:13 55.64457 -4.75891 6056 ft 266 kts 182°
2026-05-06 08:14 55.62618 -4.75994 6057 ft 266 kts 182°
2026-05-06 08:14 55.60747 -4.76056 6055 ft 266 kts 176°
2026-05-06 08:14 55.58980 -4.75223 6061 ft 268 kts 152°
2026-05-06 08:14 55.57448 -4.73269 6500 ft 276 kts 141°
2026-05-06 08:15 55.55901 -4.70991 7498 ft 275 kts 140°
2026-05-06 08:15 55.54372 -4.68748 8338 ft 279 kts 141°
2026-05-06 08:15 55.52853 -4.66545 9093 ft 284 kts 141°
2026-05-06 08:15 55.51320 -4.64335 9835 ft 289 kts 141°
2026-05-06 08:16 55.49655 -4.61946 10566 ft 296 kts 141°
2026-05-06 08:16 55.47815 -4.59312 11022 ft 314 kts 141°
2026-05-06 08:16 55.45879 -4.56551 11530 ft 328 kts 141°
2026-05-06 08:16 55.43910 -4.53745 12265 ft 333 kts 141°
2026-05-06 08:17 55.41991 -4.51018 12975 ft 337 kts 141°
2026-05-06 08:17 55.40107 -4.48342 13626 ft 342 kts 142°
2026-05-06 08:17 55.38255 -4.45716 14236 ft 346 kts 142°
2026-05-06 08:17 55.36357 -4.43029 14847 ft 350 kts 142°
2026-05-06 08:18 55.34478 -4.40372 15446 ft 354 kts 142°
2026-05-06 08:18 55.32489 -4.37563 16048 ft 357 kts 142°
2026-05-06 08:18 55.30569 -4.34854 16618 ft 361 kts 143°
2026-05-06 08:18 55.28595 -4.32072 17177 ft 364 kts 143°
2026-05-06 08:19 55.26612 -4.29280 17722 ft 367 kts 143°
2026-05-06 08:19 55.24623 -4.26483 18253 ft 370 kts 143°
2026-05-06 08:19 55.22606 -4.23653 18756 ft 373 kts 143°
2026-05-06 08:19 55.20580 -4.20813 19268 ft 376 kts 143°
2026-05-06 08:20 55.18571 -4.17935 19760 ft 379 kts 141°
2026-05-06 08:20 55.16569 -4.14696 20255 ft 383 kts 137°
2026-05-06 08:20 55.14524 -4.10976 20781 ft 387 kts 135°
2026-05-06 08:20 55.12612 -4.07433 21333 ft 388 kts 135°
2026-05-06 08:21 55.10733 -4.03956 21871 ft 388 kts 135°
2026-05-06 08:21 55.08852 -4.00486 22241 ft 394 kts 135°
2026-05-06 08:21 55.06769 -3.96650 22709 ft 397 kts 135°
2026-05-06 08:21 55.04760 -3.92962 23173 ft 399 kts 135°
2026-05-06 08:22 55.02839 -3.89443 23600 ft 401 kts 135°
2026-05-06 08:22 55.00919 -3.85934 24016 ft 404 kts 135°
2026-05-06 08:22 54.98994 -3.82420 24419 ft 406 kts 135°
2026-05-06 08:22 54.97033 -3.78844 24811 ft 408 kts 135°
2026-05-06 08:23 54.95082 -3.75290 25189 ft 411 kts 135°
2026-05-06 08:23 54.93107 -3.71700 25551 ft 413 kts 135°
2026-05-06 08:23 54.91078 -3.68019 25913 ft 416 kts 135°
2026-05-06 08:23 54.89002 -3.64262 26275 ft 418 kts 135°
2026-05-06 08:24 54.86958 -3.60566 26629 ft 420 kts 135°
2026-05-06 08:24 54.84811 -3.56689 26989 ft 422 kts 135°
2026-05-06 08:24 54.82785 -3.53039 27309 ft 425 kts 136°
2026-05-06 08:24 54.80709 -3.49302 27636 ft 427 kts 136°
2026-05-06 08:25 54.78660 -3.45625 27952 ft 429 kts 136°
2026-05-06 08:25 54.76595 -3.41922 28246 ft 431 kts 136°
2026-05-06 08:25 54.74471 -3.38282 28531 ft 431 kts 142°
2026-05-06 08:25 54.71858 -3.35310 28803 ft 427 kts 157°
2026-05-06 08:26 54.69008 -3.33570 29095 ft 423 kts 171°
2026-05-06 08:26 54.65782 -3.32830 29405 ft 421 kts 178°
2026-05-06 08:26 54.62551 -3.32365 29696 ft 423 kts 179°
2026-05-06 08:26 54.59313 -3.31911 29982 ft 424 kts 179°
2026-05-06 08:27 54.56162 -3.31448 30422 ft 422 kts 179°
2026-05-06 08:27 54.53140 -3.30988 30839 ft 419 kts 179°
2026-05-06 08:27 54.50197 -3.30535 31103 ft 421 kts 179°
2026-05-06 08:27 54.47170 -3.30064 31312 ft 423 kts 179°
2026-05-06 08:28 54.44046 -3.29577 31524 ft 424 kts 178°
2026-05-06 08:28 54.41011 -3.29102 31730 ft 426 kts 178°
2026-05-06 08:28 54.37936 -3.28620 31932 ft 428 kts 178°
2026-05-06 08:28 54.34992 -3.28159 32131 ft 429 kts 178°
2026-05-06 08:29 54.32041 -3.27696 32323 ft 431 kts 178°
2026-05-06 08:29 54.29052 -3.27227 32515 ft 432 kts 178°
2026-05-06 08:29 54.26029 -3.26755 32696 ft 433 kts 178°
2026-05-06 08:29 54.23067 -3.26292 32902 ft 434 kts 178°
2026-05-06 08:30 54.20042 -3.25820 33039 ft 434 kts 178°
2026-05-06 08:30 54.17073 -3.25358 33044 ft 434 kts 178°
2026-05-06 08:30 54.10866 -3.24378 33051 ft 434 kts 178°
2026-05-06 08:31 54.04867 -3.23345 33054 ft 435 kts 175°
2026-05-06 08:31 53.98785 -3.21327 33058 ft 438 kts 169°
2026-05-06 08:32 53.92546 -3.17899 33061 ft 440 kts 162°
2026-05-06 08:32 53.86523 -3.13991 33065 ft 440 kts 162°
2026-05-06 08:33 53.80628 -3.10203 33059 ft 439 kts 162°
2026-05-06 08:33 53.74896 -3.06531 33064 ft 439 kts 162°
2026-05-06 08:34 53.65809 -3.00734 33054 ft 440 kts 162°
2026-05-06 08:35 53.59553 -2.96760 33057 ft 440 kts 162°
2026-05-06 08:35 53.53500 -2.92924 33059 ft 440 kts 162°
2026-05-06 08:36 53.47522 -2.89147 33054 ft 439 kts 162°
2026-05-06 08:36 53.41616 -2.85428 33051 ft 439 kts 162°
2026-05-06 08:37 53.35448 -2.81556 33052 ft 439 kts 162°
2026-05-06 08:37 53.29560 -2.77869 33050 ft 439 kts 162°
2026-05-06 08:38 53.23750 -2.74243 33051 ft 439 kts 162°
2026-05-06 08:38 53.17605 -2.70421 33047 ft 440 kts 162°
2026-05-06 08:39 53.11762 -2.66795 33045 ft 439 kts 162°
2026-05-06 08:39 53.05998 -2.63228 33044 ft 439 kts 162°
2026-05-06 08:39 53.03106 -2.61443 32830 ft 439 kts 162°
2026-05-06 08:40 53.00148 -2.59619 32563 ft 436 kts 162°
2026-05-06 08:40 52.97166 -2.57783 32285 ft 434 kts 162°
2026-05-06 08:40 52.94091 -2.55893 31999 ft 431 kts 162°
2026-05-06 08:40 52.91149 -2.54088 31725 ft 431 kts 161°
2026-05-06 08:41 52.88307 -2.52348 31376 ft 431 kts 161°
2026-05-06 08:41 52.85437 -2.50564 30895 ft 429 kts 160°
2026-05-06 08:41 52.82591 -2.48535 30504 ft 427 kts 156°
2026-05-06 08:41 52.79917 -2.46315 30085 ft 425 kts 153°
2026-05-06 08:42 52.77290 -2.43799 29628 ft 423 kts 149°
2026-05-06 08:42 52.74692 -2.40976 29165 ft 420 kts 147°
2026-05-06 08:42 52.72060 -2.38042 28684 ft 417 kts 147°
2026-05-06 08:42 52.69551 -2.35261 28224 ft 414 kts 147°
2026-05-06 08:43 52.67165 -2.32629 27779 ft 411 kts 148°
2026-05-06 08:43 52.64769 -2.29997 27333 ft 408 kts 148°
2026-05-06 08:43 52.62365 -2.27361 26885 ft 404 kts 148°
2026-05-06 08:43 52.59993 -2.24764 26438 ft 401 kts 148°
2026-05-06 08:44 52.57643 -2.22194 25992 ft 398 kts 148°
2026-05-06 08:44 52.55257 -2.19588 25536 ft 395 kts 148°
2026-05-06 08:44 52.52935 -2.17054 25092 ft 392 kts 148°
2026-05-06 08:44 52.50557 -2.14463 24636 ft 389 kts 148°
2026-05-06 08:45 52.48246 -2.11945 24186 ft 386 kts 148°
2026-05-06 08:45 52.45885 -2.09380 23731 ft 383 kts 148°
2026-05-06 08:45 52.43625 -2.06930 23294 ft 380 kts 148°
2026-05-06 08:45 52.41379 -2.04496 22857 ft 378 kts 148°
2026-05-06 08:46 52.39130 -2.02059 22415 ft 375 kts 148°
2026-05-06 08:46 52.36954 -1.99703 21981 ft 372 kts 148°
2026-05-06 08:46 52.34766 -1.97340 21548 ft 369 kts 148°
2026-05-06 08:46 52.32618 -1.95024 21125 ft 367 kts 148°
2026-05-06 08:47 52.30445 -1.92684 20693 ft 364 kts 148°
2026-05-06 08:47 52.28282 -1.90411 20262 ft 361 kts 150°
2026-05-06 08:47 52.26060 -1.88379 20017 ft 364 kts 154°
2026-05-06 08:47 52.23718 -1.86575 20016 ft 365 kts 158°
2026-05-06 08:48 52.21306 -1.84893 20014 ft 366 kts 158°
2026-05-06 08:48 52.18960 -1.83263 20013 ft 366 kts 158°
2026-05-06 08:48 52.16616 -1.81634 20001 ft 367 kts 158°
2026-05-06 08:48 52.14169 -1.79933 19951 ft 367 kts 158°
2026-05-06 08:49 52.11700 -1.78219 19456 ft 367 kts 158°
2026-05-06 08:49 52.09330 -1.76574 18965 ft 364 kts 158°
2026-05-06 08:49 52.06835 -1.74844 18485 ft 360 kts 158°
2026-05-06 08:49 52.04440 -1.73184 18037 ft 356 kts 158°
2026-05-06 08:50 52.01926 -1.71444 17565 ft 352 kts 158°
2026-05-06 08:50 51.99667 -1.69883 17136 ft 349 kts 158°
2026-05-06 08:50 51.97444 -1.68348 16724 ft 346 kts 157°
2026-05-06 08:50 51.95128 -1.66752 16294 ft 343 kts 157°
2026-05-06 08:51 51.92919 -1.65231 15877 ft 341 kts 157°
2026-05-06 08:51 51.90778 -1.63758 15479 ft 339 kts 157°
2026-05-06 08:51 51.88608 -1.62228 15075 ft 336 kts 155°
2026-05-06 08:51 51.86514 -1.60499 14660 ft 334 kts 150°
2026-05-06 08:52 51.84506 -1.58593 14235 ft 333 kts 148°
2026-05-06 08:52 51.82373 -1.56530 13777 ft 331 kts 148°
2026-05-06 08:52 51.80411 -1.54632 13354 ft 330 kts 148°
2026-05-06 08:52 51.78364 -1.52657 12915 ft 328 kts 148°
2026-05-06 08:53 51.76419 -1.50788 12493 ft 326 kts 148°
2026-05-06 08:53 51.74497 -1.48943 12074 ft 324 kts 148°
2026-05-06 08:53 51.72564 -1.47092 11651 ft 322 kts 148°
2026-05-06 08:53 51.70559 -1.45215 11216 ft 319 kts 151°
2026-05-06 08:54 51.68481 -1.43584 11011 ft 322 kts 156°
2026-05-06 08:54 51.66230 -1.42170 11009 ft 324 kts 159°
2026-05-06 08:54 51.64061 -1.40893 11010 ft 325 kts 159°
2026-05-06 08:54 51.61855 -1.39603 11006 ft 325 kts 159°
2026-05-06 08:55 51.59732 -1.38458 11004 ft 324 kts 165°
2026-05-06 08:55 51.57541 -1.37644 11007 ft 324 kts 168°
2026-05-06 08:55 51.55298 -1.36908 11006 ft 324 kts 168°
2026-05-06 08:55 51.52965 -1.36136 11005 ft 324 kts 168°
2026-05-06 08:56 51.50521 -1.35301 11004 ft 323 kts 167°
2026-05-06 08:56 51.48230 -1.34500 11006 ft 324 kts 168°
2026-05-06 08:56 51.46027 -1.33720 10998 ft 324 kts 168°
2026-05-06 08:56 51.43814 -1.32933 10997 ft 324 kts 168°
2026-05-06 08:57 51.41523 -1.32115 10943 ft 321 kts 167°
2026-05-06 08:57 51.39308 -1.31324 10522 ft 318 kts 167°
2026-05-06 08:57 51.37129 -1.30546 10266 ft 308 kts 167°
2026-05-06 08:57 51.35009 -1.29788 10018 ft 300 kts 167°
2026-05-06 08:58 51.32869 -1.29022 9614 ft 297 kts 167°
2026-05-06 08:58 51.30746 -1.28263 9345 ft 289 kts 168°
2026-05-06 08:58 51.28645 -1.27515 8815 ft 291 kts 168°
2026-05-06 08:58 51.26471 -1.26743 8313 ft 292 kts 168°
2026-05-06 08:59 51.24425 -1.26016 7891 ft 290 kts 168°
2026-05-06 08:59 51.22456 -1.25318 7484 ft 289 kts 168°
2026-05-06 08:59 51.20399 -1.24673 7086 ft 287 kts 171°
2026-05-06 08:59 51.18237 -1.24056 6992 ft 287 kts 171°
2026-05-06 09:00 51.16222 -1.23493 6990 ft 288 kts 171°
2026-05-06 09:00 51.14237 -1.22945 6991 ft 288 kts 171°
2026-05-06 09:00 51.12136 -1.22367 6985 ft 287 kts 171°
2026-05-06 09:00 51.10041 -1.21784 6684 ft 284 kts 171°
2026-05-06 09:01 51.08104 -1.21236 6252 ft 284 kts 171°
2026-05-06 09:01 51.06090 -1.20668 5852 ft 282 kts 171°
2026-05-06 09:01 51.04089 -1.20119 5454 ft 280 kts 171°
2026-05-06 09:01 51.02137 -1.19603 5064 ft 279 kts 171°
2026-05-06 09:02 51.00172 -1.19107 4670 ft 277 kts 171°
2026-05-06 09:02 50.98114 -1.18611 4258 ft 276 kts 171°
2026-05-06 09:02 50.96144 -1.18158 3990 ft 273 kts 171°
2026-05-06 09:02 50.94186 -1.17721 3985 ft 274 kts 171°
2026-05-06 09:03 50.92117 -1.17340 3982 ft 275 kts 180°
2026-05-06 09:03 50.90142 -1.18115 3978 ft 269 kts 210°
2026-05-06 09:03 50.88543 -1.19862 3983 ft 250 kts 219°
2026-05-06 09:03 50.87056 -1.21749 3989 ft 243 kts 220°
2026-05-06 09:04 50.85648 -1.23585 3991 ft 242 kts 221°
2026-05-06 09:04 50.84284 -1.25374 3992 ft 242 kts 221°
2026-05-06 09:04 50.82885 -1.27213 3992 ft 242 kts 221°
2026-05-06 09:04 50.81442 -1.29112 3790 ft 239 kts 221°
2026-05-06 09:05 50.80098 -1.30890 3413 ft 240 kts 221°
2026-05-06 09:05 50.78740 -1.32703 3070 ft 241 kts 221°
2026-05-06 09:05 50.77291 -1.34643 2866 ft 232 kts 221°
2026-05-06 09:05 50.76025 -1.36337 2703 ft 225 kts 221°
2026-05-06 09:06 50.74857 -1.38003 2530 ft 217 kts 233°
2026-05-06 09:06 50.74416 -1.40407 2494 ft 188 kts 287°
2026-05-06 09:06 50.75101 -1.42290 2519 ft 164 kts 322°
2026-05-06 09:06 50.76167 -1.43278 2500 ft 156 kts 348°
2026-05-06 09:07 50.77356 -1.43558 2504 ft 154 kts 359°
2026-05-06 09:07 50.78630 -1.43738 2496 ft 154 kts 358°
2026-05-06 09:07 50.79851 -1.43895 2488 ft 152 kts
2026-05-06 09:07 50.80891 -1.43566 2492 ft 135 kts 20°
2026-05-06 09:08 50.81905 -1.42997 2475 ft 130 kts 22°
2026-05-06 09:08 50.82876 -1.42434 2473 ft 130 kts 21°
2026-05-06 09:08 50.83854 -1.41875 2227 ft 129 kts 21°
2026-05-06 09:08 50.84750 -1.41370 2022 ft 129 kts 21°
2026-05-06 09:09 50.85719 -1.40828 1819 ft 128 kts 21°
2026-05-06 09:09 50.86667 -1.40299 1624 ft 128 kts 21°
2026-05-06 09:09 50.87588 -1.39787 1435 ft 127 kts 21°
2026-05-06 09:09 50.88499 -1.39279 1251 ft 127 kts 21°
2026-05-06 09:10 50.89375 -1.38791 1074 ft 127 kts 21°
2026-05-06 09:10 50.90270 -1.38292 892 ft 126 kts 21°
2026-05-06 09:10 50.91137 -1.37809 717 ft 126 kts 20°
2026-05-06 09:10 50.91999 -1.37328 542 ft 126 kts 20°
2026-05-06 09:11 50.92947 -1.36824 351 ft 126 kts 20°
2026-05-06 09:11 50.93929 -1.36281 187 ft 126 kts 20°
2026-05-06 09:11 50.94855 -1.35772 50 ft 121 kts 19°
2026-05-06 09:11 50.95514 -1.35405 48 ft 44 kts 19°
2026-05-06 09:12 50.95682 -1.35335 48 ft 6 kts 352°
2026-05-06 09:12 50.95680 -1.35315 48 ft 4 kts 167°
2026-05-06 09:12 50.95630 -1.35341 48 ft 7 kts 202°
2026-05-06 09:12 50.95565 -1.35382 48 ft 9 kts 200°
2026-05-06 09:13 50.95476 -1.35431 48 ft 15 kts 199°
2026-05-06 09:13 50.95336 -1.35506 48 ft 19 kts 200°
2026-05-06 09:13 50.95190 -1.35588 48 ft 17 kts 199°
2026-05-06 09:13 50.95065 -1.35659 48 ft 9 kts 200°
2026-05-06 09:14 50.95025 -1.35743 48 ft 10 kts 283°
2026-05-06 09:14 50.95049 -1.35848 48 ft 6 kts 290°
2026-05-06 09:14 50.95043 -1.35919 48 ft 6 kts 225°
2026-05-06 09:14 50.94990 -1.35957 48 ft 8 kts 199°
2026-05-06 09:15 50.94919 -1.35996 48 ft 8 kts 201°
2026-05-06 09:15 50.94903 -1.36088 48 ft 9 kts 289°
2026-05-06 09:15 50.94918 -1.36132 48 ft 3 kts 329°
2026-05-06 09:15 50.94948 -1.36130 48 ft 2 kts 18°
2026-05-06 09:16 50.94968 -1.36119 48 ft 0 kts 20°
2026-05-06 09:16 50.94970 -1.36118 48 ft 0 kts 20°